Regional Weather Roundup
Issued by NWS

Home | Current Version | Previous Version | Text Only | Print | Product List | Glossary On
Versions: 1 2 3 4 5 6 7 8 9 10 11 12 13 14 15 16 17 18 19 20 21 22 23 24 25 26 27
000
ASUS45 KREV 012110
RWRNV
NEVADA REGIONAL WEATHER ROUNDUP
NATIONAL WEATHER SERVICE RENO NV
100 PM PST FRI DEC 01 2023

NOTE: "FAIR" INDICATES FEW OR NO CLOUDS BELOW 12,000 FEET WITH NO
SIGNIFICANT WEATHER AND/OR OBSTRUCTIONS TO VISIBILITY.

NVZ001-003-004-012200-
WESTERN NEVADA

CITY           SKY/WX    TMP DP  RH WIND       PRES   REMARKS
RENO           PTSUNNY   48  24  39 W15G23    30.00F TC   9
CARSON CITY    PTSUNNY   50  23  34 W14       30.01F TC  10
MINDEN         MOSUNNY   46  23  39 W15G23    30.02F TC   8
SLIDE MTN        N/A     25  21  86 N21         N/A  TC  -4
PYRAMID LAKE     N/A     50 N/A N/A W1          N/A  TC  10
FALLON         PTSUNNY   46  25  43 SW7       30.00F TC   8
LOVELOCK       CLOUDY    45  26  47 SW9       29.98F TC   7
HAWTHORNE      SUNNY     45  23  42 W6        30.04S TC   7
$$

NVZ002-CAZ072-073-012200-
NORTHERN AND CENTRAL SIERRA

CITY           SKY/WX    TMP DP  RH WIND       PRES   REMARKS
S. LAKE TAHOE  MOSUNNY   40  22  48 CALM      30.04F TC   4
TRUCKEE        PTSUNNY   39  27  60 W12G23    30.07S TC   4
BLUE CANYON    CLOUDY    36  29  75 VRB6      30.10F TC   2
SUSANVILLE     PTSUNNY   46  30  53 W14G22    29.99F TC   8
MAMMOTH LAKES  SUNNY     45  13  27 NW8       30.01F TC   7
BRIDGEPORT       N/A     43  16  33 N9          N/A  TC   6
$$

NVZ030-031-036-012200-
NORTHERN NEVADA

CITY           SKY/WX    TMP DP  RH WIND       PRES   REMARKS
ELKO           LGT SNOW  31  25  78 SW16      29.91F TC  -1
WINNEMUCCA     CLOUDY    35  28  75 S12       29.95F TC   2
BATTLE MOUNTAI CLOUDY    37  28  70 SW17      29.95F TC   3
WENDOVER       MOSUNNY   42  19  39 NW9       29.86F TC   6
$$

NVZ035-037-012200-
CENTRAL NEVADA

CITY           SKY/WX    TMP DP  RH WIND       PRES   REMARKS
ELY            CLOUDY    35  15  44 W10       29.92S TC   2
EUREKA           N/A     35  18  49 W8G17     29.94F TC   2
$$

NVZ013-014-012200-
SOUTH CENTRAL NEVADA

CITY           SKY/WX    TMP DP  RH WIND       PRES   REMARKS
TONOPAH        SUNNY     40  20  44 NW21G33   30.00S TC   4
$$

NVZ017-020-022-012200-
SOUTHERN NEVADA

CITY           SKY/WX    TMP DP  RH WIND       PRES   REMARKS
LAS VEGAS      MOSUNNY   61  26  26 VRB3      29.95F TC  16
N. LAS VEGAS   SUNNY     61  26  26 NW21G30   29.92F TC  16
NELLIS AFB     SUNNY     63  22  21 W17       29.89F TC  17
HENDERSON      SUNNY     58  28  32 NE7       29.96F TC  14
MERCURY        SUNNY     54  27  35 SW12      29.97F TC  12
$$



USA.gov is the U.S. government's official web portal to all federal, state and local government web resources and services.